Location: ?????
(44.4284°N, 135.2222°E)
Time: 07:13:50
(UTC+00:00)

SL-16 R/B - Pass Details

Date: 19 May 2025
Orbit: 985 x 1006 km, 99.7° (Epoch: 16 June)

Event Time Altitude Azimuth Distance (km) Brightness Sun altitude
Rises 17:40:57 0° 150° (SSE) 3,680 5.3 -15.4°
Reaches altitude 10° 17:43:26 10° 147° (SSE) 2,736 4.7 -15.1°
Maximum altitude 17:49:27 60° 69° (ENE) 1,127 3.1 -14.4°
Drops below altitude 10° 17:55:30 10° 352° (N) 2,758 5.4 -13.7°
Sets 17:58:01 0° 348° (NNW) 3,713 6.1 -13.4°
